World > North America > United States > New York

Hourly Sloansville, NY Regional Weather

Feedback E-mail the Weather

Latest News

Sloansville, NY Weather Maps

°F °C°F °C
Sloansville Weather Map
UTC Time: 5/28/2022, 11:46
Your Time:

Sloansville, NY Regional Weather

Expires:202205281100;;696568
ASUS41 KALY 281010
RWRALY

NEW YORK STATE HOURLY WEATHER ROUNDUP
NATIONAL WEATHER SERVICE ALBANY NY
600 AM EDT SAT MAY 28 2022

NOTE: "FAIR" INDICATES FEW OR NO CLOUDS BELOW 12,000 FEET WITH NO
SIGNIFICANT WEATHER AND/OR NO OBSTRUCTIONS TO VISIBILITY.


NYZ032-033-038>043-046>054-057>066-NYZ062>081-082-084-281100-
EAST

  
CITY           SKY/WX    TMP DP  RH WIND       PRES   REMARKS
ALBANY         CLOUDY    66  64  93 S7        29.68R                  
GLENS FALLS    CLOUDY    63  62  97 CALM      29.67S                  
POUGHKEEPSIE   CLOUDY    66  64  93 CALM      29.68S                  
NEWBURGH       CLOUDY    64  64 100 CALM      29.69S FOG              
MONTGOMERY     CLOUDY    64  63  96 CALM      29.69R                  
WHITE PLAINS   MOCLDY    66  63  90 SW3       29.70R                  
ISLIP          FOG       63  63 100 SW7       29.71R VSB 1/8          
NEW YORK CITY  CLOUDY    68  63  84 SW8       29.70R                  
CENTRAL PARK   CLOUDY    65  64  97 CALM      29.73R                  
$$


SKY/WX - Weather  TMP - Temperature  DP - Dew Point  RH - Humidity
WIND - Wind Direction/Speed PRES - Barometric Pressure VSB - Visibility
WCI - Wind Chill Index E13G22 Wind - East Wind 13 mph/Gusts of 22 mph

Trending Headlines

Sloansville Radar Loop



Sloansville Quick Facts


National Two Day Weather Forecast


E-mail the Sloansville Weather Forecast

Voice your opinion or tell us about page issues...